Location: Peebles
(55.6412°N, 3.1714°W)
Time: 21:22:12
(UTC+01:00)

deb AGENA D - Pass Details

Date: 10 July 2022
Orbit: 951 x 1019 km, 99.8° (Epoch: 17 August)

Event Time Altitude Azimuth Distance (km) Brightness Sun altitude
Exits shadow 00:56:40 - 133° (SE) 3,254 ? -12.0°
Reaches altitude 10° 00:57:54 10° 130° (SE) 2,805 ? -12.0°
Maximum altitude 01:03:53 47° 59° (ENE) 1,334 ? -12.0°
Drops below altitude 10° 01:09:50 10° 348° (NNW) 2,799 ? -12.1°
Sets 01:12:24 0° 343° (NNW) 3,744 ? -12.1°
